Satellite-Ground Cal/Val Region Overpasses Predictions

Prediction of Satellite NPP Overpassing Cal/Val Region: PacNW

Region Location: (Latitude: 10.00, Longitude: 139.50) to (Latitude: 22.70, Longitude: 165.60).

Table of predicted overpasses for the next 14.0 days since TLE Epoch: 9/14/2013
Interval Starting Time Starting Location Ending Time Ending Location
1 09/14/2013 14:46:34 ( 22.69, 163.41) 09/14/2013 14:50:10 ( 10.01, 160.38)
2 09/15/2013 03:37:09 ( 10.02, 145.54) 09/15/2013 03:40:45 ( 22.69, 142.51)
3 09/15/2013 14:30:35 ( 11.98, 165.59) 09/15/2013 14:31:08 ( 10.04, 165.15)
4 09/15/2013 16:09:03 ( 22.66, 142.78) 09/15/2013 16:12:38 ( 10.04, 139.77)
5 09/16/2013 03:18:09 ( 10.04, 150.29) 09/16/2013 03:21:44 ( 22.66, 147.28)
6 09/16/2013 15:50:02 ( 22.69, 147.55) 09/16/2013 15:53:38 ( 10.01, 144.52)
7 09/17/2013 02:59:07 ( 10.01, 155.05) 09/17/2013 03:02:43 ( 22.69, 152.03)
8 09/17/2013 15:31:01 ( 22.66, 152.30) 09/17/2013 15:34:36 ( 10.04, 149.29)
9 09/18/2013 02:40:07 ( 10.04, 159.80) 09/18/2013 02:43:42 ( 22.66, 156.79)
10 09/18/2013 15:12:00 ( 22.69, 157.06) 09/18/2013 15:15:36 ( 10.01, 154.04)
11 09/19/2013 02:21:05 ( 10.01, 164.56) 09/19/2013 02:24:41 ( 22.69, 161.54)
12 09/19/2013 14:52:59 ( 22.66, 161.81) 09/19/2013 14:56:34 ( 10.04, 158.80)
13 09/20/2013 03:43:35 ( 10.04, 143.94) 09/20/2013 03:47:10 ( 22.66, 140.93)
14 09/20/2013 14:35:06 ( 18.70, 165.59) 09/20/2013 14:37:34 ( 10.01, 163.55)
15 09/20/2013 16:15:28 ( 22.69, 141.20) 09/20/2013 16:17:27 ( 15.71, 139.50)
16 09/21/2013 03:24:33 ( 10.01, 148.70) 09/21/2013 03:28:09 ( 22.69, 145.68)
17 09/21/2013 15:56:27 ( 22.66, 145.95) 09/21/2013 16:00:02 ( 10.04, 142.94)
18 09/22/2013 03:05:33 ( 10.04, 153.45) 09/22/2013 03:09:08 ( 22.66, 150.44)
19 09/22/2013 15:37:26 ( 22.68, 150.71) 09/22/2013 15:41:02 ( 10.00, 147.69)
20 09/23/2013 02:46:32 ( 10.02, 158.22) 09/23/2013 02:50:08 ( 22.70, 155.19)
21 09/23/2013 15:18:25 ( 22.65, 155.46) 09/23/2013 15:22:00 ( 10.03, 152.45)
22 09/24/2013 02:27:31 ( 10.05, 162.97) 09/24/2013 02:31:06 ( 22.67, 159.96)
23 09/24/2013 14:59:24 ( 22.68, 160.23) 09/24/2013 15:02:59 ( 10.06, 157.22)
24 09/25/2013 02:11:05 ( 19.13, 165.59) 09/25/2013 02:12:05 ( 22.65, 164.72)
25 09/25/2013 03:50:00 ( 10.03, 142.35) 09/25/2013 03:53:24 ( 22.00, 139.51)
26 09/25/2013 14:40:23 ( 22.64, 164.97) 09/25/2013 14:43:58 ( 10.02, 161.97)
27 09/25/2013 16:21:52 ( 22.70, 139.61) 09/25/2013 16:21:59 ( 22.29, 139.51)
28 09/26/2013 03:30:58 ( 10.00, 147.12) 09/26/2013 03:34:34 ( 22.68, 144.09)
29 09/26/2013 16:02:52 ( 22.66, 144.36) 09/26/2013 16:06:27 ( 10.04, 141.35)
30 09/27/2013 03:11:58 ( 10.04, 151.87) 09/27/2013 03:15:33 ( 22.66, 148.86)
31 09/27/2013 15:43:50 ( 22.69, 149.13) 09/27/2013 15:47:26 ( 10.01, 146.10)


NCC Satellite Cal/Val Overpasses Prediction Service
